Погода в Новых Бобовичах

Россия / Брянская область     52°37′17″N   31°44′06″E
темп.,
°C
ветер,
м/с
пор.,
м/с
влажн.,
%
обл.,
%
осадки,
мм/ч
давл.,
гПа
погр.,
м
14 мая, пт
пт1400:00+10юв41183100 0.1 1011288
03:00+11юв51377100 0.1 1011440
06:00+10юв51195100 1.5 1011357
09:00+13вюв5108099 2.4 1010427
12:00+19юв686259 0.0 10091077
15:00+21ююв575796 0.7 10071578
18:00+18ююз348383 3.6 1006258
21:00+13ююз22935 4.3 100726
15 мая, сб
сб1500:00+11ю35950 0.0 100779
03:00+10ю379718 0.1 1007152
06:00+11ююв38965 0.0 1007197
09:00+15ююз578231 0.0 1008595
12:00+17ююз577886 1.4 10091145
15:00+17зюз457685 2.8 1009971
18:00+16ююз357987 1.3 1009624
21:00+12ююз379124 2.3 1010115
16 мая, вс
вс1600:00+10ююз38969 0.0 1011161
03:00+10ююз3798100 0.0 1011157
06:00+9ю359935 0.0 1013134
09:00+14юз238535 0.0 1013457
12:00+18ююз226370 0.2 10131279
15:00+19ю236293 0.3 10131142
18:00+19юв2364100 0.0 1012827
21:00+14вюв3383100 0.0 101239
17 мая, пн
пн1700:00+13вюв3390100 0.0 101139
03:00+12в3592100 0.0 101074
06:00+12в3990100 0.0 1009182
09:00+18в4873100 0.0 1008387
12:00+18ссв1282100 0.3 1006501
15:00+22зюз1271100 0.5 1004786
18:00+15зсз6119399 2.2 1005500
21:00+12з119755 2.4 100612
18 мая, вт
вт1800:00+11з239980 0.0 100664
03:00+11зюз2298100 0.0 100726
06:00+12сз2398100 0.0 1006102
09:00+15зсз1188100 0.1 1007466
12:00+17юз1179100 0.9 1007676
15:00+18зюз227399 3.6 1007904
18:00+18зюз127170 1.1 1006823
21:00+14ююз228893 1.8 100611